Location: Warszawa
(52.2500°N, 21.0000°E)
Time: 21:16:29
(UTC+02:00)

Vanguard 2 - Pass Details

Date: 07 February 2023
Orbit: 553 x 2927 km, 32.9° (Epoch: 27 March)

Event Time Altitude Azimuth Distance (km) Brightness Sun altitude
Rises 18:49:43 0° 195° (SSW) 4,681 11.7 -21.1°
Reaches altitude 10° 18:54:02 10° 176° (S) 4,128 11.2 -21.7°
Maximum altitude 19:00:42 17° 140° (SE) 4,128 10.8 -22.7°
Enters shadow 19:01:46 17° 135° (SE) 4,222 10.8 -22.9°
